OK1HRA-8 Weather Reports


time (UTC)temp
C
wind
direction
speed
KPH
gust
KPH
rain 1hr
cm
rain 24hr
cm
rain mn
cm
humidity
%
barometer
mb
20260901115145 20 270 11.3 19.3 0.00 0.00 0.00 5 1007.7
20260901114624 20 225 14.5 29.0 0.00 0.00 0.00 5 1007.2
20260901114103 20 270 17.7 22.5 0.00 0.00 0.00 5 1004.1
20260901114046 20 247 14.5 27.4 0.00 0.00 0.00 5 1003.9
20260901113531 19 247 16.1 29.0 0.00 0.00 0.00 5 1004.2
20260901113010 21 270 16.1 25.7 0.00 0.00 0.00 5 1006.9
20260901112455 20 292 17.7 27.4 0.00 0.00 0.00 5 1005.2
20260901111934 20 247 16.1 22.5 0.00 0.00 0.00 5 1004.4
20260901111918 20 270 14.5 24.1 0.00 0.00 0.00 5 1005.1
20260901111357 18 292 12.9 22.5 0.00 0.00 0.00 6 1006.2
20260901110842 18 292 12.9 24.1 0.00 0.00 0.00 6 1006.1
20260901110327 18 270 12.9 20.9 0.00 0.00 0.00 5 1006.2
20260901105806 18 292 12.9 16.1 0.00 0.00 0.00 6 1006.1
20260901105743 18 292 8.0 16.1 0.00 0.00 0.00 6 1006.6
20260901105227 18 315 11.3 24.1 0.00 0.00 0.00 6 1005.6
20260901104713 18 292 14.5 24.1 0.00 0.00 0.00 6 1006.1
20260901104151 18 270 16.1 19.3 0.00 0.00 0.00 6 1005.5
20260901104135 18 247 12.9 25.7 0.00 0.00 0.00 6 1005.6
20260901103614 18 292 12.9 25.7 0.00 0.00 0.00 6 1005.5
20260901103059 19 315 14.5 24.1 0.00 0.00 0.00 6 1005.6
20260901102544 18 247 14.5 30.6 0.00 0.00 0.00 5 1004.8
20260901102023 19 270 9.7 12.9 0.00 0.00 0.00 5 1006.9
20260901101959 19 247 16.1 32.2 0.00 0.00 0.00 5 1006.0
20260901101444 18 270 20.9 30.6 0.00 0.00 0.00 5 1004.4
20260901100929 18 270 17.7 29.0 0.00 0.00 0.00 5 1005.9
20260901100408 19 270 19.3 25.7 0.00 0.00 0.00 5 1004.3
20260901100344 19 270 14.5 25.7 0.00 0.00 0.00 5 1003.8
20260901095829 18 247 17.7 30.6 0.00 0.00 0.00 6 1005.6
20260901095314 18 247 19.3 30.6 0.00 0.00 0.00 6 1005.6
20260901094753 18 270 12.9 16.1 0.00 0.00 0.00 6 1005.1
20260901094736 18 270 14.5 24.1 0.00 0.00 0.00 6 1004.8
20260901094221 18 270 19.3 33.8 0.00 0.00 0.00 6 1006.0
20260901093700 18 270 16.1 27.4 0.00 0.00 0.00 6 1003.8
20260901093145 18 270 16.1 27.4 0.00 0.00 0.00 6 1005.1
20260901092624 18 247 6.4 11.3 0.00 0.00 0.00 6 1006.5
20260901092608 18 225 11.3 22.5 0.00 0.00 0.00 6 1006.5
20260901092047 18 270 17.7 30.6 0.00 0.00 0.00 6 1005.0
20260901091532 18 270 14.5 24.1 0.00 0.00 0.00 6 1004.7
20260901091017 17 292 14.5 27.4 0.00 0.00 0.00 6 1004.4
20260901090456 17 270 8.0 11.3 0.00 0.00 0.00 6 1005.3
20260901090440 17 270 16.1 29.0 0.00 0.00 0.00 6 1005.2
20260901085919 17 270 22.5 33.8 0.00 0.00 0.00 6 1004.9
20260901085404 17 270 19.3 33.8 0.00 0.00 0.00 6 1004.3
20260901084849 17 270 17.7 32.2 0.00 0.00 0.00 6 1005.0
20260901084328 17 270 20.9 30.6 0.00 0.00 0.00 6 1003.5
20260901084312 17 270 16.1 30.6 0.00 0.00 0.00 6 1004.0
20260901083751 17 270 14.5 30.6 0.00 0.00 0.00 6 1004.1
20260901083236 17 270 14.5 27.4 0.00 0.00 0.00 6 1005.6
20260901082721 17 270 14.5 30.6 0.00 0.00 0.00 6 1004.2
20260901082200 17 270 6.4 9.7 0.00 0.00 0.00 7 1005.4
20260901082136 16 270 20.9 33.8 0.00 0.00 0.00 7 1005.5
20260901081621 16 225 20.9 32.2 0.00 0.00 0.00 7 1004.6
20260901081106 17 247 17.7 30.6 0.00 0.00 0.00 6 1004.7
20260901080545 17 270 14.5 27.4 0.00 0.00 0.00 7 1005.9
20260901080529 17 292 19.3 32.2 0.00 0.00 0.00 7 1005.9
20260901080014 17 225 14.5 24.1 0.00 0.00 0.00 6 1005.8
20260901075459 16 270 19.3 30.6 0.00 0.00 0.00 7 1004.3
20260901074938 16 270 16.1 32.2 0.00 0.00 0.00 7 1003.9
20260901074417 16 270 11.3 16.1 0.00 0.00 0.00 7 1004.0
20260901074359 16 270 17.7 29.0 0.00 0.00 0.00 7 1004.5
20260901073844 16 270 19.3 33.8 0.00 0.00 0.00 7 1004.5
20260901073323 16 270 16.1 25.7 0.00 0.00 0.00 7 1004.7
20260901072802 16 270 6.4 8.0 0.00 0.00 0.00 7 1006.4
20260901072744 16 247 14.5 27.4 0.00 0.00 0.00 7 1005.0
20260901072228 16 292 17.7 30.6 0.00 0.00 0.00 7 1006.0
20260901071707 16 270 19.3 35.4 0.00 0.00 0.00 7 1005.2
20260901071146 16 270 14.5 22.5 0.00 0.00 0.00 7 1006.3
20260901071130 16 270 20.9 27.4 0.00 0.00 0.00 7 1006.9
20260901070615 16 270 19.3 29.0 0.00 0.00 0.00 8 1006.0
20260901070054 16 270 14.5 27.4 0.00 0.00 0.00 7 1006.0
20260901065539 15 270 16.1 30.6 0.00 0.00 0.00 8 1007.0
20260901065018 15 247 17.7 24.1 0.00 0.00 0.00 8 1006.4
20260901065002 15 270 16.1 25.7 0.00 0.00 0.00 8 1006.5
20260901064441 15 270 17.7 25.7 0.00 0.00 0.00 8 1006.0
20260901063926 15 270 16.1 29.0 0.00 0.00 0.00 8 1005.8
20260901063411 15 270 19.3 30.6 0.00 0.00 0.00 8 1006.6
20260901062850 15 247 11.3 16.1 0.00 0.00 0.00 8 1008.0
20260901062834 15 270 17.7 32.2 0.00 0.00 0.00 8 1007.3
20260901062319 15 270 16.1 25.7 0.00 0.00 0.00 8 1007.9
20260901061804 15 225 19.3 29.0 0.00 0.00 0.00 8 1008.8
20260901061243 14 247 20.9 30.6 0.00 0.00 0.00 9 1008.4
20260901060722 14 247 16.1 20.9 0.00 0.00 0.00 9 1008.3
20260901060707 14 247 20.9 32.2 0.00 0.00 0.00 9 1008.3
20260901060152 14 270 16.1 24.1 0.00 0.00 0.00 9 1007.8
20260901055631 13 225 19.3 32.2 0.00 0.00 0.00 9 1008.0
20260901055115 13 247 19.3 30.6 0.00 0.00 0.00 9 1009.1
20260901054554 13 225 14.5 19.3 0.00 0.00 0.00 9 1008.4
20260901054539 13 225 19.3 32.2 0.00 0.00 0.00 9 1008.3
20260901054018 13 225 17.7 29.0 0.00 0.00 0.00 9 1007.9
20260901053502 13 247 17.7 27.4 0.00 0.00 0.00 9 1007.6
20260901052948 13 225 17.7 29.0 0.00 0.00 0.00 9 1007.9
20260901052427 13 247 17.7 24.1 0.00 0.00 0.00 9 1008.5
20260901052411 13 225 16.1 27.4 0.00 0.00 0.00 9 1008.4
20260901051850 13 247 17.7 30.6 0.00 0.00 0.00 9 1008.6
20260901051335 13 247 17.7 30.6 0.00 0.00 0.00 9 1008.6
20260901050820 13 247 17.7 27.4 0.00 0.00 0.00 9 1008.2
20260901050259 13 225 12.9 16.1 0.00 0.00 0.00 9 1008.8
20260901050243 13 225 14.5 24.1 0.00 0.00 0.00 9 1008.6
20260901045722 13 247 12.9 24.1 0.00 0.00 0.00 9 1008.7
20260901045207 13 270 14.5 24.1 0.00 0.00 0.00 9 1008.7
20260901044652 12 270 14.5 25.7 0.00 0.00 0.00 9 1009.1
20260901044131 13 270 12.9 17.7 0.00 0.00 0.00 9 1009.0
20260901044107 13 225 14.5 27.4 0.00 0.00 0.00 9 1008.4
20260901043552 13 270 12.9 24.1 0.00 0.00 0.00 9 1008.9
20260901043037 13 270 14.5 25.7 0.00 0.00 0.00 9 1008.7
20260901042516 13 225 16.1 20.9 0.00 0.00 0.00 9 1009.0
20260901042452 12 270 17.7 30.6 0.00 0.00 0.00 9 1008.7
20260901041937 13 270 16.1 29.0 0.00 0.00 0.00 9 1009.0
20260901041422 13 247 16.1 25.7 0.00 0.00 0.00 9 1008.4
20260901040901 13 270 14.5 17.7 0.00 0.00 0.00 9 1008.3
20260901040844 13 247 16.1 25.7 0.00 0.00 0.00 9 1008.1
20260901040329 12 247 16.1 25.7 0.00 0.00 0.00 9 1008.2
20260901035814 13 225 12.9 24.1 0.00 0.00 0.00 9 1008.4
20260901035253 13 247 14.5 25.7 0.00 0.00 0.00 9 1009.2
20260901034732 13 225 11.3 14.5 0.00 0.00 0.00 9 1008.8
20260901034714 13 247 11.3 19.3 0.00 0.00 0.00 9 1008.6
20260901034159 13 247 11.3 17.7 0.00 0.00 0.00 9 1008.2
20260901033638 13 247 14.5 22.5 0.00 0.00 0.00 9 1008.3
20260901033117 13 247 11.3 14.5 0.00 0.00 0.00 9 1008.2
20260901033100 13 247 12.9 22.5 0.00 0.00 0.00 9 1008.3
20260901032545 13 225 14.5 24.1 0.00 0.00 0.00 9 1008.3
20260901032024 13 225 12.9 24.1 0.00 0.00 0.00 9 1008.1
20260901031509 13 270 12.9 20.9 0.00 0.00 0.00 8 1008.1
20260901030948 13 247 12.9 16.1 0.00 0.00 0.00 9 1008.2
20260901030932 13 247 11.3 22.5 0.00 0.00 0.00 8 1008.6
20260901030411 13 270 11.3 19.3 0.00 0.00 0.00 8 1007.8
20260901025856 13 270 9.7 20.9 0.00 0.00 0.00 8 1008.2
20260901025341 13 270 9.7 16.1 0.00 0.00 0.00 8 1008.2
20260901024820 13 270 9.7 14.5 0.00 0.00 0.00 8 1008.0
20260901024804 13 270 9.7 17.7 0.00 0.00 0.00 8 1008.1
20260901024243 13 270 11.3 19.3 0.00 0.00 0.00 8 1008.5
20260901023728 13 270 12.9 20.9 0.00 0.00 0.00 8 1008.1
20260901023213 13 270 14.5 20.9 0.00 0.00 0.00 8 1008.2
20260901022652 13 270 16.1 22.5 0.00 0.00 0.00 8 1008.0
20260901022636 13 270 14.5 24.1 0.00 0.00 0.00 8 1008.2
20260901022115 13 270 11.3 19.3 0.00 0.00 0.00 8 1007.8
20260901021600 13 270 11.3 20.9 0.00 0.00 0.00 8 1007.7
20260901021045 14 270 11.3 22.5 0.00 0.00 0.00 8 1007.1
20260901020524 14 270 6.4 8.0 0.00 0.00 0.00 8 1008.2
20260901020508 14 270 12.9 19.3 0.00 0.00 0.00 8 1007.8
20260901015947 14 292 14.5 24.1 0.00 0.00 0.00 8 1007.8
20260901015432 14 270 12.9 20.9 0.00 0.00 0.00 8 1007.5
20260901014917 14 270 14.5 24.1 0.00 0.00 0.00 8 1007.4
20260901014356 14 247 9.7 12.9 0.00 0.00 0.00 8 1007.7
20260901014332 14 270 11.3 20.9 0.00 0.00 0.00 8 1007.5
20260901013818 14 270 12.9 22.5 0.00 0.00 0.00 8 1007.0
20260901013302 14 270 14.5 27.4 0.00 0.00 0.00 8 1007.1
20260901012741 14 270 11.3 17.7 0.00 0.00 0.00 8 1007.9
20260901012717 14 247 16.1 29.0 0.00 0.00 0.00 8 1007.4
20260901012202 14 225 14.5 25.7 0.00 0.00 0.00 8 1006.7
20260901011647 14 270 17.7 24.1 0.00 0.00 0.00 8 1007.3
20260901011126 14 247 12.9 20.9 0.00 0.00 0.00 8 1007.7
20260901011109 14 247 12.9 22.5 0.00 0.00 0.00 8 1007.4
20260901010548 14 247 12.9 24.1 0.00 0.00 0.00 7 1007.2
20260901010033 14 225 12.9 22.5 0.00 0.00 0.00 8 1005.9
20260901005518 14 247 12.9 17.7 0.00 0.00 0.00 8 1006.2
20260901004957 14 270 9.7 12.9 0.00 0.00 0.00 8 1005.6
20260901004941 14 247 14.5 20.9 0.00 0.00 0.00 8 1005.6
20260901004420 14 247 14.5 27.4 0.00 0.00 0.00 7 1006.1
20260901003905 14 225 12.9 24.1 0.00 0.00 0.00 7 1006.3
20260901003350 14 225 12.9 20.9 0.00 0.00 0.00 7 1006.6
20260901002829 14 247 12.9 16.1 0.00 0.00 0.00 7 1006.0
20260901002813 15 247 11.3 19.3 0.00 0.00 0.00 7 1006.0
20260901002252 14 225 11.3 19.3 0.00 0.00 0.00 7 1005.9
20260901001737 15 247 11.3 22.5 0.00 0.00 0.00 7 1005.8
20260901001222 15 247 12.9 27.4 0.00 0.00 0.00 7 1006.8
20260901000701 15 225 14.5 20.9 0.00 0.00 0.00 7 1006.1
20260901000645 15 270 14.5 25.7 0.00 0.00 0.00 7 1005.5
20260901000124 15 225 14.5 22.5 0.00 0.00 0.00 7 1006.6
20260831235609 15 270 11.3 20.9 0.00 0.00 0.30 7 1005.3
20260831235054 15 247 14.5 22.5 0.00 0.00 0.30 7 1005.2
20260831234533 15 225 9.7 12.9 0.00 0.00 0.30 7 1004.7
20260831234517 15 270 11.3 22.5 0.00 0.00 0.30 7 1004.4
20260831233956 15 225 11.3 19.3 0.00 0.00 0.30 7 1005.5
20260831233441 15 225 11.3 19.3 0.00 0.00 0.30 7 1005.1
20260831232926 15 270 12.9 24.1 0.00 0.00 0.30 7 1005.3
20260831232405 15 247 11.3 14.5 0.00 0.00 0.30 7 1004.1
20260831232349 15 247 11.3 22.5 0.00 0.00 0.30 7 1004.2
20260831231828 15 225 12.9 20.9 0.00 0.00 0.30 7 1004.3
20260831231313 15 225 11.3 25.7 0.00 0.00 0.30 7 1004.7
20260831230758 15 247 11.3 24.1 0.00 0.00 0.30 6 1004.5
20260831230237 15 270 12.9 16.1 0.00 0.00 0.30 6 1005.1
20260831230221 15 247 11.3 19.3 0.00 0.00 0.30 6 1005.4
20260831225700 15 247 11.3 19.3 0.00 0.00 0.30 7 1004.5
20260831225145 15 225 11.3 19.3 0.00 0.00 0.30 7 1003.8
20260831224630 15 270 12.9 22.5 0.00 0.00 0.30 7 1003.8
20260831224109 15 270 16.1 22.5 0.00 0.00 0.30 6 1003.7
20260831224045 15 292 14.5 27.4 0.00 0.00 0.30 6 1004.1
20260831223530 16 270 17.7 30.6 0.00 0.00 0.30 6 1003.8
20260831223015 16 270 17.7 29.0 0.00 0.00 0.30 6 1003.5
20260831222453 16 225 17.7 25.7 0.00 0.00 0.30 6 1003.3
20260831222430 16 247 19.3 29.0 0.00 0.00 0.30 6 1003.5
20260831221915 16 225 12.9 22.5 0.00 0.00 0.30 6 1003.1
20260831221400 16 225 12.9 24.1 0.00 0.00 0.30 6 1003.3
20260831220839 16 225 9.7 11.3 0.00 0.00 0.30 6 1003.1
20260831220822 16 270 12.9 22.5 0.00 0.00 0.30 6 1003.2
20260831220301 16 247 12.9 24.1 0.00 0.00 0.30 6 1002.8
20260831215746 16 247 11.3 22.5 0.00 0.00 0.30 6 1002.6
20260831215231 16 225 11.3 19.3 0.00 0.00 0.30 6 1002.3
20260831214710 16 247 9.7 14.5 0.00 0.00 0.30 6 1002.2
20260831214654 16 225 11.3 19.3 0.00 0.00 0.30 6 1002.2
20260831214139 16 247 11.3 22.5 0.00 0.00 0.30 6 1001.9
20260831213618 16 225 11.3 20.9 0.00 0.00 0.30 6 1002.2
20260831213103 16 270 12.9 22.5 0.00 0.00 0.30 6 1002.5
20260831212542 17 247 12.9 17.7 0.00 0.00 0.30 6 1001.9
20260831212526 17 270 17.7 27.4 0.00 0.00 0.30 6 1001.9
20260831212005 17 270 16.1 27.4 0.00 0.00 0.30 6 1002.3
20260831211450 17 247 17.7 29.0 0.00 0.00 0.30 6 1002.4
20260831210935 17 247 17.7 29.0 0.00 0.00 0.30 6 1002.1
20260831210414 17 270 8.0 9.7 0.00 0.00 0.30 6 1002.0
20260831210350 17 270 17.7 32.2 0.00 0.00 0.30 6 1002.3
20260831205835 17 270 14.5 24.1 0.00 0.00 0.30 6 1002.4
20260831205320 17 247 16.1 24.1 0.00 0.00 0.30 6 1002.2
20260831204759 17 270 16.1 20.9 0.00 0.00 0.30 6 1002.0
20260831204735 17 247 17.7 27.4 0.00 0.00 0.30 6 1002.2
20260831204220 17 247 12.9 20.9 0.00 0.00 0.30 6 1002.7
20260831203705 17 247 9.7 20.9 0.00 0.00 0.30 6 1002.8
20260831203144 17 247 11.3 16.1 0.00 0.00 0.30 6 1002.8
20260831203120 17 225 8.0 12.9 0.00 0.00 0.30 6 1003.2
20260831202605 17 225 11.3 14.5 0.00 0.00 0.30 6 1003.2
20260831202050 17 225 9.7 14.5 0.00 0.00 0.30 6 1002.6
20260831201529 17 225 6.4 8.0 0.00 0.00 0.30 6 1002.7
20260831201512 17 225 8.0 11.3 0.00 0.00 0.30 6 1002.8
20260831200951 17 225 9.7 14.5 0.00 0.00 0.30 6 1002.4
20260831200436 17 225 11.3 16.1 0.00 0.00 0.30 6 1002.2
20260831195921 17 225 11.3 24.1 0.00 0.00 0.30 6 1002.6
20260831195400 17 225 4.8 4.8 0.00 0.00 0.30 6 1002.3
20260831195344 17 202 6.4 12.9 0.00 0.00 0.30 6 1002.4
20260831194823 17 225 4.8 8.0 0.00 0.00 0.30 5 1002.8
20260831194308 17 247 6.4 9.7 0.00 0.00 0.30 6 1002.4
20260831193753 18 225 4.8 8.0 0.00 0.00 0.30 5 1003.3
20260831193232 18 225 0.0 0.0 0.00 0.00 0.30 6 1002.8
20260831193216 18 247 3.2 6.4 0.00 0.00 0.30 6 1002.9
20260831192655 18 270 4.8 11.3 0.00 0.00 0.30 6 1002.2
20260831192139 18 270 4.8 11.3 0.00 0.00 0.30 6 1002.3
20260831191624 18 270 8.0 16.1 0.00 0.00 0.30 6 1001.9
20260831191103 18 270 8.0 11.3 0.00 0.00 0.30 6 1002.6
20260831191047 18 270 6.4 14.5 0.00 0.00 0.30 6 1002.4
20260831190526 18 270 8.0 14.5 0.00 0.00 0.30 6 1001.7
20260831190011 18 247 9.7 16.1 0.00 0.00 0.30 6 1001.6
20260831185456 18 270 8.0 14.5 0.00 0.00 0.30 6 1001.4
20260831184935 18 270 9.7 12.9 0.00 0.00 0.30 6 1002.0
20260831184920 18 270 8.0 16.1 0.00 0.00 0.30 6 1001.6
20260831184358 18 247 6.4 14.5 0.00 0.00 0.30 6 1001.6
20260831183843 18 225 8.0 14.5 0.00 0.00 0.30 5 1001.5
20260831183328 18 225 6.4 12.9 0.00 0.00 0.30 5 1001.9
20260831182807 18 247 8.0 11.3 0.00 0.00 0.30 6 1000.7
20260831182751 18 270 6.4 14.5 0.00 0.00 0.30 5 1000.7
20260831182230 18 225 4.8 11.3 0.00 0.00 0.30 5 1001.0
20260831181715 19 270 8.0 17.7 0.00 0.00 0.30 6 1000.6
20260831181200 19 247 8.0 16.1 0.00 0.00 0.30 5 1000.2
20260831180639 19 225 8.0 12.9 0.00 0.00 0.30 5 1001.3
20260831180616 19 225 8.0 12.9 0.00 0.00 0.30 5 1000.9
20260831180101 19 247 6.4 12.9 0.00 0.00 0.30 5 1001.0
20260831175546 19 225 9.7 17.7 0.00 0.00 0.30 5 1000.6
20260831175025 20 247 8.0 11.3 0.00 0.00 0.30 5 1000.5
20260831175008 20 225 9.7 17.7 0.00 0.00 0.30 5 1000.4
20260831174447 20 270 11.3 19.3 0.00 0.00 0.30 5 1000.1
20260831173932 20 225 11.3 20.9 0.00 0.00 0.30 5 1000.4
20260831173417 20 225 8.0 17.7 0.00 0.00 0.30 5 1000.6
20260831172856 20 247 0.0 0.0 0.00 0.00 0.30 5 1000.4
20260831172840 20 270 8.0 16.1 0.00 0.00 0.30 5 1000.2
20260831172319 20 270 9.7 20.9 0.00 0.00 0.30 5 999.8
20260831171804 20 225 8.0 19.3 0.00 0.00 0.30 5 1000.4
20260831171249 21 270 12.9 22.5 0.00 0.00 0.30 5 999.8
20260831170728 21 225 8.0 9.7 0.00 0.00 0.30 5 1000.2
20260831170712 21 270 9.7 19.3 0.00 0.00 0.30 5 1000.1
20260831170151 20 247 14.5 25.7 0.00 0.00 0.30 5 999.2
20260831165636 21 247 16.1 30.6 0.00 0.00 0.30 5 999.7
20260831165121 21 270 12.9 24.1 0.00 0.00 0.30 5 999.6
20260831164600 21 225 9.7 12.9 0.00 0.00 0.30 4 1000.9
20260831164536 21 225 12.9 24.1 0.00 0.00 0.30 4 999.9
20260831164021 21 225 19.3 40.2 0.00 0.00 0.30 5 999.5
20260831163506 21 247 17.7 29.0 0.00 0.00 0.30 5 999.7
20260831162945 21 247 19.3 27.4 0.00 0.00 0.30 5 999.6
20260831162921 21 247 17.7 29.0 0.00 0.00 0.30 5 999.6
20260831162406 21 247 20.9 35.4 0.00 0.00 0.30 4 999.7
20260831161851 21 225 17.7 35.4 0.00 0.00 0.30 4 1000.1
20260831161330 21 270 16.1 19.3 0.00 0.00 0.30 4 999.8
20260831161305 21 270 17.7 37.0 0.00 0.00 0.30 4 1001.3
20260831160750 21 247 20.9 37.0 0.00 0.00 0.30 5 998.8
20260831160235 21 225 25.7 38.6 0.00 0.00 0.30 5 999.7
20260831155714 22 270 12.9 16.1 0.00 0.00 0.30 5 1000.2
20260831155650 22 247 17.7 29.0 0.00 0.00 0.30 5 999.7
20260831155135 22 247 22.5 41.8 0.00 0.00 0.30 4 1000.8
20260831154620 22 225 22.5 33.8 0.00 0.00 0.30 4 1000.1
20260831154059 22 247 17.7 22.5 0.00 0.00 0.30 4 999.2
20260831154042 22 247 25.7 35.4 0.00 0.00 0.30 5 999.5
20260831153521 22 270 24.1 40.2 0.00 0.00 0.30 4 998.3
20260831153006 22 247 25.7 41.8 0.00 0.00 0.30 4 999.0
20260831152451 22 225 25.7 48.3 0.00 0.00 0.30 4 999.7
20260831151930 22 225 8.0 11.3 0.00 0.00 0.30 4 999.7
20260831151914 22 247 24.1 40.2 0.00 0.00 0.30 4 999.3
20260831151353 22 270 25.7 37.0 0.00 0.00 0.30 5 998.0
20260831150838 22 270 22.5 37.0 0.00 0.00 0.30 4 998.1
20260831150323 22 225 24.1 40.2 0.00 0.00 0.30 4 998.3
20260831145802 22 270 12.9 17.7 0.00 0.00 0.30 4 999.6
20260831145744 22 202 22.5 41.8 0.00 0.00 0.30 4 998.7
20260831145223 22 270 16.1 27.4 0.00 0.00 0.30 4 999.8
20260831144708 22 225 17.7 30.6 0.00 0.00 0.30 5 998.2
20260831144147 22 270 24.1 32.2 0.00 0.00 0.30 4 998.2
20260831144130 22 247 19.3 32.2 0.00 0.00 0.30 4 999.8
20260831143609 22 247 17.7 30.6 0.00 0.00 0.30 5 1000.0
20260831143054 22 270 22.5 37.0 0.00 0.00 0.30 5 998.1
20260831142539 22 270 24.1 40.2 0.00 0.00 0.30 5 999.0
20260831142018 22 180 4.8 6.4 0.00 0.00 0.30 4 1000.6
20260831141955 22 225 22.5 41.8 0.00 0.00 0.30 5 999.8
20260831141439 22 225 29.0 46.7 0.00 0.00 0.30 5 999.0
20260831140924 22 202 19.3 29.0 0.00 0.00 0.30 4 999.9
20260831140403 22 225 16.1 25.7 0.00 0.00 0.30 5 1000.1
20260831140339 22 247 19.3 32.2 0.00 0.00 0.30 5 998.7
20260831135824 21 247 25.7 38.6 0.00 0.00 0.30 5 999.4
20260831135309 22 225 25.7 41.8 0.00 0.00 0.30 5 999.6
20260831134748 22 247 24.1 30.6 0.00 0.00 0.30 5 999.6
20260831134731 22 225 25.7 46.7 0.00 0.00 0.30 5 1000.3
20260831134210 22 247 27.4 38.6 0.00 0.00 0.30 5 999.7
20260831133655 22 270 24.1 37.0 0.00 0.00 0.30 5 998.8
20260831133140 22 270 22.5 33.8 0.00 0.00 0.30 5 998.9
20260831132619 22 270 14.5 19.3 0.00 0.00 0.30 5 1000.4
20260831132603 22 292 19.3 37.0 0.00 0.00 0.30 5 1000.5
20260831132048 22 270 16.1 33.8 0.00 0.00 0.30 5 1000.5
20260831131527 22 270 20.9 35.4 0.00 0.00 0.30 5 999.3
20260831131012 22 270 22.5 38.6 0.00 0.00 0.30 5 998.0
20260831130451 22 270 22.5 32.2 0.00 0.00 0.30 5 998.6
20260831130435 22 270 20.9 40.2 0.00 0.00 0.30 5 998.5
20260831125914 22 247 24.1 37.0 0.00 0.00 0.30 5 998.8
20260831125359 22 270 19.3 38.6 0.00 0.00 0.30 5 998.1
20260831124844 21 270 22.5 37.0 0.00 0.00 0.30 5 1000.0
20260831124323 21 270 19.3 29.0 0.00 0.00 0.30 5 998.7
20260831124259 21 270 19.3 37.0 0.00 0.00 0.30 5 998.4
20260831123744 22 270 22.5 45.1 0.00 0.00 0.30 5 997.8
20260831123229 22 270 24.1 40.2 0.00 0.00 0.30 5 997.7
20260831122708 22 225 22.5 30.6 0.00 0.00 0.30 5 999.8
20260831122651 22 225 19.3 38.6 0.00 0.00 0.30 5 998.9
20260831122130 22 270 20.9 33.8 0.00 0.00 0.30 5 998.5
20260831121615 21 247 24.1 38.6 0.00 0.00 0.30 5 998.4
20260831121100 21 225 24.1 38.6 0.00 0.00 0.30 6 998.4
20260831120539 21 270 16.1 29.0 0.00 0.00 0.30 5 998.5
20260831120523 21 270 24.1 38.6 0.00 0.00 0.30 5 998.3
20260831120002 21 202 16.1 27.4 0.00 0.00 0.30 5 999.8
20260831115447 21 270 16.1 30.6 0.00 0.00 0.30 6 999.7